www.pogodaiklimat.ru

Погода и климат >> Архив погоды >> Россия >> Алтайский край >> Поспелиха


ПОГОДА в Поспелихе

  • Прогноз погоды в Поспелихе
  • Монитор погоды в Поспелихе

АРХИВ ПОГОДЫ в Поспелихе

Время (UTC), дата Ветер
(напр.,м/с)
 
Видим.   Явления Облачность Т
(С)
Тd
(С)
f
(%)
Тe
(С)
Тes
(С)
Комфортность P
(гПа)
Po
(гПа)
Тmin
(С)
Tmax
(С)
R
(мм)
R24
(мм)
S
(см)
12 13.05 С 4
{11}
20 км 9/3 600 м
[Cu med, cong Ac lent Ci ing]
+5.8 -9.1 33 +3 +4 1019.0 992.3 +9.7
15 13.05 С 3 20 км 10 баллов +4.3 -10.2 34 +2 +2 1021.6 994.7
18 13.05 С 2 20 км ясно +0.7 -8.0 52 -2 -2 1021.9 994.7
21 13.05 СЗ 2 20 км ясно -1.7 -7.2 66 -5 -5 1022.1 994.7
00 14.05 СЗ 1 20 км 3/0
[Ci sp]
-0.3 -5.8 66 -2 -1 1021.8 994.4 -2.3
03 14.05 ЮЗ 2 20 км 7 баллов +5.5 -7.3 39 +4 +6 1021.4 994.7
06 14.05 ЮЗ 4 20 км 10/3 600 м
[Cu med, cong Ac lent Ci sp]
+6.6 -7.8 35 +4 +4 1019.9 993.3
09 14.05 ЮЗ 4 20 км 10 баллов +8.0 -9.9 27 +6 +6 1015.7 989.3
12 14.05 ЮЗ 4 10 км слаб. ливневой дождь 10/6 540 м
[Cb cap Ac und]
+5.5 -2.6 56 +2 +2 1012.1 985.5 +8.3 0.0
15 14.05 ЮВ 1 20 км в посл. час ливневой дождь 10/8 500 м
[Cb cap Ac und]
+3.4 +1.7 89 +2 +2 1008.6 982.0
18 14.05 С 3 20 км 10 баллов +1.7 +0.5 92 -3 -3 1008.0 981.3
21 14.05 СЗ 3 н/о н/о +1.2 -0.1 91 -3 1009.5 982.7
00 15.05 СЗ 5 4000 м слаб. ливневой снег 10/8 300 м
[Cb cap Ac und]
+0.5 -0.5 93 -6 -6 1012.0 985.0 +0.4 4
03 15.05 СЗ 5 20 км {ливн. осадки} 10/4 300 м
[Cb cap Ac und Ci sp]
+2.4 +0.6 88 -3 -2 1015.5 988.6 +0.3
06 15.05 СЗ 3 20 км {ливн. осадки} 8/4 600 м
[Cu med, cong Ci sp]
+6.6 +0.5 65 +4 +8 1018.5 992.0
09 15.05 З 5
{10}
20 км {ливн. осадки} 10/4 300 м
[Cb cap Ac und Ci sp]
+6.9 +1.6 69 +3 +3 1019.8 993.3
12 15.05 СЗ 3
{11}
20 км в посл. час морось {ливн. осадки} 8/3 600 м
[Cu med, cong Ci sp]
+7.7 +3.8 76 +5 +6 1020.3 993.9 +8.1 3
15 15.05 СЗ 2 20 км 7 баллов +3.5 -0.3 76 +1 +1 1024.3 997.3
18 15.05 С 1 20 км 3/0
[Ci sp]
+1.7 -1.4 80 0 0 1024.5 997.3
21 15.05 ЮЗ 1 20 км 3/0
[Ac cast]
-0.7 -3.2 83 -3 -3 1024.7 997.3
00 16.05 З 1 20 км 5/3 600 м
[Cu med, cong Ac lent]
-0.4 -2.5 86 -2 -2 1023.9 996.6 -1.9
03 16.05 ЮЗ 1 20 км 4/3 600 м
[Cu hum Ci sp]
+6.5 +3.1 79 +6 +12 1025.4 998.7
06 16.05 ЮЗ 2 20 км 10/4 300 м
[Cb cap Ac und Ci sp]
+3.8 -0.2 75 +1 +1 1025.7 998.7
09 16.05 ЮЗ 4 20 км 8/4 600 м
[Cu med, cong Ci sp]
+7.2 +1.3 66 +4 +6 1023.9 997.3
12 16.05 З 2 20 км 6/3 600 м
[Cu med, cong Ci sp]
+4.4 -0.1 73 +2 +4 1024.0 997.2 +7.4
15 16.05 З 2 20 км 3/0
[Ci sp]
+3.3 -0.2 78 0 0 1025.7 998.7
18 16.05 СЗ 1 20 км ясно +1.3 -1.6 81 -0 -0 1025.9 998.7
21 16.05 СЗ 1 20 км ясно +0.4 -1.8 85 -2 -2 1026.0 998.7
00 17.05 СЗ 1 20 км ясно +0.6 -1.4 86 -1 -0 1025.3 998.1 +0.2
03 17.05 В 1 20 км ясно +8.0 +0.5 59 +8 +18 опасность
простуды
1026.6 1000.0
06 17.05 З 1 20 км 8/6 870 м
[Cu med, cong Ci sp]
+10.3 -3.0 39 +11 +16 1026.4 1000.0
09 17.05 Ю 1 20 км 3/3
[Cu hum]
+12.4 -8.7 22 +13 +24 опасность
простуды
1024.9 998.7
12 17.05 Ю 2 20 км 3/0
[Ci ing]
+12.9 -9.4 20 +13 +15 1022.8 996.6 +13.9
15 17.05 Ю 1 20 км 3/0
[Ci sp]
+8.2 -7.1 33 +8 +8 1023.8 997.3
18 17.05 Ю 1 20 км 6 баллов +5.2 -6.7 42 +5 +5 1024.1 997.3
21 17.05 В 1 20 км 1 балл +0.8 -5.0 65 -1 -1 1023.2 996.0
00 18.05 Ю 1 20 км 8/0
[Ac und Ci sp]
+4.4 -5.2 50 +4 +4 1020.3 993.4 +0.3
03 18.05 Ю 7-13
{13}
20 км 3/0
[Ci]
+12.6 -6.8 25 +10 +13 1017.7 991.6
06 18.05 ЮЗ 6-10
{14}
20 км 4/0
[Ci]
+17.3 -7.1 18 +17 +22 1014.8 989.2
09 18.05 Ю 6-13
{13}
20 км 3/0
[Ci]
+20.5 -8.9 13 +20 +23 1011.8 986.7
12 18.05 ЮЗ 6-10
{15}
20 км 5/0
[Ci]
+21.4 -8.4 13 +20 +21 1009.2 984.1 +22.1
15 18.05 Ю 4 20 км 6 баллов +17.4 -6.5 19 +17 +17 1009.3 984.0
18 18.05 Ю 5-10
{10}
20 км 8/0
[Ci sp]
+15.2 -8.7 18 +14 +14 1007.9 982.3
21 18.05 Ю 5 20 км 4 балла +13.2 -7.5 23 +12 +12 1008.4 982.7
00 19.05 Ю 5-10
{12}
20 км 6/0
[Ci sp]
+12.5 -7.7 24 +11 +11 1006.7 980.9 +11.9
03 19.05 ЮЗ 10-16
{18}
20 км 8/0
[Ac und Ci sp]
+19.7 -6.8 16 +19 +19 1006.4 981.3
06 19.05 ЮЗ 8-15
{19}
20 км {ливн. осадки} 9/3 300 м
[Cb cap Ac und Ci sp]
+20.2 -0.5 25 +20 +20 1007.7 982.7
09 19.05 ЮЗ 6-11
{18}
20 км 8/6 900 м
[Cu hum Ci sp]
+24.2 +2.3 24 +23 +25 комфорт 1006.0 981.3
12 19.05 З 5-11
{14}
20 км 8/3 600 м
[Cu med, cong Ci sp]
+22.5 +3.6 29 +22 +23 комфорт 1006.2 981.4 +25.2 0.0
15 19.05 ЮЗ 1
{11}
20 км {ливн. осадки} 8/3 300 м
[Cb cap Ac lent Ci sp]
+15.4 +8.3 63 +16 +16 1008.1 982.6
18 19.05 СВ 1 20 км 7 баллов +12.1 +7.6 74 +12 +12 1009.8 984.0
21 19.05 З 1 20 км 10 баллов +12.3 +8.2 76 +12 +12 1009.7 984.0
00 20.05 ЮЗ 3 20 км 6/0
[Ac cast Cc]
+13.5 +10.2 80 +12 +13 1008.5 982.8 +11.1 0.3
03 20.05 ЮЗ 4 20 км 2 балла +19.0 +10.0 56 +20 +24 1009.1 984.0
06 20.05 ЮЗ 6-13
{13}
20 км 8/6 870 м
[Cu hum Ci sp]
+23.0 +0.4 22 +22 +24 комфорт 1007.7 982.9
09 20.05 ЮЗ 6 20 км 7 баллов +24.8 -0.4 19 +23 +25 комфорт 1007.4 982.7

 

Местоположение метеостанции Поспелиха (Алтайский край, Россия): широта 52.00 долгота 81.83 высота над уровнем моря 217 м.

В архиве по умолчанию представлена погода в Поспелихе за последнюю неделю. Архивные данные за месяц целиком и за предыдущие месяцы, начиная с января 2011 года, Вы можете получить, выбрав интересующий диапазон дат из раскрывающегося списка и нажав кнопку "Ввод!".


*Определитесь, кто Вы:
робот инопланетянин человек

Внимание! Время в таблицах - всемирное. Для получения местного времени необходимо прибавить поправку, которая равна 7 ч.

Смотрите также архив погоды в соседних городах и на ближайших метеорологических станциях:

Погода в Шипуново (Алтайский край, Россия) (36 км)
Погода в Рубцовске (Алтайский край, Россия) (64 км)
Погода в Краснощеково (Алтайский край, Россия) (72 км)
Погода в Мамонтово (Алтайский край, Россия) (79 км)
Погода в Алейской (Алтайский край, Россия) (86 км)
Погода в Змеиногорске (Алтайский край, Россия) (97 км)
Погода в Волчихе (Алтайский край, Россия) (103 км)
Погода в Усть-Калманке (Алтайский край, Россия) (107 км)
Погода в Горняке (Алтайский край, Россия) (116 км)
Погода в Родино (Алтайский край, Россия) (124 км)

Пояснения к столбцам:

Ветер - указаны скорость ветра в м/с - средняя за 10 мин, порывы в срок и между сроками (в фигурных скобках) и направление, откуда дует ветер: С - северный, СВ - северо-восточный, В - восточный, ЮВ - юго-восточный, Ю - южный, ЮЗ - юго-западный, З - западный, СЗ - северо-западный.
Видимость - горизонтальная дальность видимости в метрах или километрах. При видимости от 1 до 10 км при отсутствии осадков обычно наблюдается дымка, при ухудшении видимости до 1 км и менее - туман. В сухую погоду видимость может ухудшаться дымом, пылью или мглою.
Явления - указаны атмосферные явления, наблюдавшиеся в срок или в последний час перед сроком; фигурными скобками обозначены явления, наблюдавшиеся между сроками (за 1-3 часа до срока); квадратными скобками обозначены град или гололедные отложения с указанием их диаметра в мм.
Облачность - указаны через наклонную черту общая и нижняя облачность в баллах и высота нижней границы облаков в метрах; квадратными скобками обозначены формы облаков: Ci - перистые, Cs - перисто-слоистые, Cc - перисто-кучевые, Ac - высококучевые, As - высокослоистые, Sc - слоисто-кучевые, Ns - слоисто-дождевые, Cu - кучевые, Cb - кучево-дождевые. Подробнее классификацию облаков см. в Атласе облаков (PDF).
T - Температура воздуха - температура, измеренная на высоте 2 м над землей.
Td - Температура точки росы - температура, при понижении до которой содержащийся в воздухе водяной пар достигнет насыщения.
f - Относительная влажность воздуха - влажноcть воздуха, измеренная на высоте 2 м над землей.
Te - Эффективная температура - температура, которую ощущает одетый по сезону человек в тени. Характеристика душности погоды. При расчете учитывается влияние влажности воздуха и скорости ветра на теплоощущения человека.
Tes - Эффективная температура на солнце - температура, которую ощущает человек, с поправкой на солнечный нагрев. Характеристика знойности погоды. Зависит от высоты солнца над горизонтом, облачности и скорости ветра. Ночью, в пасмурную погоду, а также при ветре 12 м/с и более поправка равна нулю.
P - Атмосферное давление - приведенное к уровню моря атмосферное давление.
Po - Атмосферное давление - измеренное на уровне метеостанции атмосферное давление.
Tmin - Минимальная температура - минимум температуры воздуха на высоте 2 м над землей.
Tmax - Максимальная температура - максимум температуры воздуха на высоте 2 м над землей.
R - Количество осадков - Количество выпавших осадков за период времени, мм. При наведении курсора мыши на число - период времени, за который выпало указанное количество осадков.
R24 - Количество осадков - Количество выпавших осадков за 24 часа, мм.
S - Снежный покров - Высота снежного покрова, см. При наведении курсора мыши на число - состояние снежного покрова и степень покрытия местности в баллах.